FW9447 Weather Reports


Display with metric or nautical units.
time (UTC)temp
F
wind
direction
speed
MPH
gust
MPH
rain 1hr
in
rain 24hr
in
rain mn
in
humidity
%
barometer
mb
20260508133103 46 320 5.0 9.0 0.00 0.77 0.12 98 1002.3
20260508131556 46 329 4.0 9.0 0.01 0.77 0.12 97 1002.4
20260508130055 45 329 3.0 7.0 0.01 0.77 0.12 98 1002.2
20260508124559 45 341 2.0 8.0 0.01 0.77 0.12 95 1002.0
20260508123055 47 335 4.0 9.0 0.01 0.77 0.12 97 1001.9
20260508121552 48 330 4.0 7.0 0.00 0.76 0.11 98 1002.1
20260508120111 48 17 1.0 4.0 0.01 0.76 0.11 99 1002.1
20260508114602 47 14 1.0 3.0 0.01 0.76 0.11 99 1002.0
20260508113053 46 12 0.0 4.0 0.01 0.76 0.11 100 1002.1
20260508111556 46 15 1.0 3.0 0.01 0.76 0.11 100 1002.1
20260508104556 44 9 1.0 3.0 0.00 0.75 0.10 100 1001.9
20260508103057 42 2 0.0 2.0 0.00 0.75 0.10 100 1002.2
20260508101556 40 2 0.0 1.0 0.01 0.75 0.10 100 1001.9
20260508100128 40 2 1.0 2.0 0.01 0.75 0.10 99 1002.1
20260508094555 40 2 0.0 2.0 0.01 0.75 0.10 99 1001.9
20260508093055 40 0 0.0 2.0 0.01 0.75 0.10 99 1001.7
20260508091610 40 2 0.0 1.0 0.00 0.74 0.09 99 1001.5
20260508090055 40 0 0.0 2.0 0.01 0.74 0.09 99 1001.5
20260508084557 40 0 0.0 2.0 0.01 0.74 0.09 99 1001.6
20260508083056 41 2 1.0 3.0 0.01 0.74 0.09 99 1001.4
20260508081610 41 359 1.0 3.0 0.02 0.74 0.09 99 1001.5
20260508080052 41 357 1.0 3.0 0.01 0.73 0.08 99 1001.2
20260508074554 41 350 1.0 2.0 0.01 0.73 0.08 99 1001.4
20260508073052 41 0 0.0 2.0 0.02 0.73 0.08 99 1001.3
20260508071555 42 350 1.0 3.0 0.01 0.72 0.07 99 1001.6
20260508070051 42 346 1.0 3.0 0.01 0.72 0.07 99 1001.7
20260508064556 42 344 1.0 6.0 0.02 0.72 0.07 99 1001.7
20260508063056 43 329 2.0 7.0 0.01 0.71 0.06 98 1001.7
20260508061557 45 345 2.0 6.0 0.02 0.71 0.06 98 1001.5
20260508060108 46 0 0.0 5.0 0.02 0.71 0.06 99 1001.7
20260508054639 46 335 2.0 7.0 0.02 0.70 0.05 99 1001.7
20260508053054 46 345 1.0 6.0 0.02 0.70 0.05 99 1001.7
20260508051551 46 341 3.0 8.0 0.01 0.69 0.04 99 1001.8
20260508050054 47 321 4.0 8.0 0.02 0.69 0.04 99 1001.7
20260508044556 47 358 1.0 4.0 0.02 0.68 0.03 100 1001.7
20260508043058 46 345 1.0 4.0 0.02 0.68 0.03 99 1001.8
20260508041553 46 3 0.0 3.0 0.02 0.68 0.03 99 1001.8
20260508040056 46 3 0.0 2.0 0.02 0.67 0.02 99 1002.3
20260508034554 47 0 0.0 1.0 0.02 0.66 0.01 99 1002.0
20260508033053 47 0 0.0 1.0 0.02 0.66 0.01 99 1002.0
20260508031556 48 0 0.0 1.0 0.03 0.66 0.01 99 1002.1
20260508030104 48 0 0.0 2.0 0.03 0.65 0.00 99 1002.1
20260508024602 48 0 0.0 0.0 0.03 0.64 0.64 99 1002.4
20260508023052 48 0 0.0 1.0 0.03 0.64 0.64 99 1002.2
20260508021554 48 0 0.0 2.0 0.03 0.63 0.63 99 1002.2
20260508020104 48 3 1.0 4.0 0.03 0.62 0.62 99 1002.3
20260508014553 48 356 2.0 7.0 0.03 0.61 0.61 99 1002.3
20260508013053 48 339 3.0 10.0 0.03 0.60 0.60 99 1002.5
20260508011554 48 8 2.0 9.0 0.04 0.60 0.60 99 1002.3
20260508010053 49 323 4.0 12.0 0.05 0.58 0.58 98 1002.1
20260508004557 49 318 1.0 7.0 0.05 0.58 0.58 98 1002.1
20260508003056 50 333 3.0 6.0 0.05 0.57 0.57 99 1002.1
20260508001553 50 330 3.0 5.0 0.06 0.56 0.56 98 1002.3
20260508000051 50 286 0.0 6.0 0.05 0.54 0.54 98 1002.2
20260507234556 51 0 1.0 4.0 0.05 0.52 0.52 98 1002.2
20260507233052 51 187 0.0 3.0 0.06 0.52 0.52 98 1002.1
20260507231553 52 189 2.0 9.0 0.06 0.50 0.50 98 1002.1
20260507230050 53 237 4.0 8.0 0.07 0.49 0.49 97 1002.1
20260507224553 53 162 3.0 9.0 0.07 0.48 0.48 98 1001.8
20260507223056 54 233 3.0 9.0 0.08 0.46 0.46 97 1001.9
20260507221551 54 154 5.0 10.0 0.08 0.44 0.44 97 1001.6
20260507220055 54 152 6.0 10.0 0.08 0.42 0.42 98 1001.5
20260507214554 54 151 7.0 11.0 0.08 0.40 0.40 97 1001.3
20260507213053 54 148 2.0 8.0 0.09 0.38 0.38 98 1001.3
20260507211557 55 149 5.0 9.0 0.10 0.36 0.36 98 1001.4
20260507210103 55 158 4.0 9.0 0.10 0.34 0.34 98 1001.2
20260507204551 54 150 7.0 11.0 0.10 0.32 0.32 98 1001.4
20260507203101 54 170 5.0 11.0 0.10 0.29 0.29 98 1001.2
20260507201552 54 145 5.0 11.0 0.10 0.26 0.26 98 1001.4
20260507200053 54 140 5.0 15.0 0.10 0.24 0.24 98 1000.4
20260507194554 54 138 7.0 16.0 0.09 0.21 0.21 98 1000.6
20260507193049 54 140 6.0 13.0 0.10 0.19 0.19 99 1001.4
20260507191552 54 156 6.0 15.0 0.09 0.16 0.16 98 1001.9
20260507190052 54 117 8.0 16.0 0.09 0.14 0.14 98 1003.1
20260507184552 54 110 8.0 13.0 0.08 0.12 0.12 98 1003.4
20260507183055 54 131 7.0 13.0 0.07 0.09 0.09 98 1003.3
20260507181555 54 98 7.0 15.0 0.06 0.07 0.07 98 1004.1
20260507180058 55 153 9.0 17.0 0.05 0.05 0.05 98 1004.0
20260507174607 55 119 9.0 19.0 0.04 0.04 0.04 97 1004.3
20260507173054 55 158 11.0 19.0 0.02 0.02 0.02 97 1004.6
20260507171605 55 132 11.0 20.0 0.01 0.01 0.01 96 1004.5
20260507170053 56 121 13.0 29.0 0.00 0.00 0.00 94 1003.6
20260507164552 57 144 17.0 28.0 0.00 0.00 0.00 91 1003.5
20260507163100 58 148 17.0 31.0 0.00 0.00 0.00 89 1003.5
20260507161559 58 170 18.0 29.0 0.00 0.00 0.00 89 1003.9
20260507160055 59 165 17.0 34.0 0.00 0.00 0.00 88 1003.9
20260507154552 60 175 21.0 37.0 0.00 0.00 0.00 86 1004.3
20260507153101 60 158 20.0 36.0 0.00 0.00 0.00 86 1004.6
20260507151553 60 131 23.0 43.0 0.00 0.00 0.00 86 1005.0
20260507150057 60 157 20.0 36.0 0.00 0.00 0.00 86 1005.2
20260507144557 60 175 20.0 34.0 0.00 0.00 0.00 85 1005.8
20260507143054 60 152 13.0 33.0 0.00 0.00 0.00 84 1006.1
20260507141552 60 157 21.0 48.0 0.00 0.00 0.00 85 1006.2
20260507140108 60 137 16.0 32.0 0.00 0.00 0.00 86 1006.4
20260507134557 59 133 17.0 35.0 0.00 0.00 0.00 88 1006.5